[[{"header":{"parameterUnit":"m.s-1","parameterCategory":2,"la1":30.2991,"la2":30.254,"lo1":-89.0895,"lo2":-89.0444,"dy":0.0017,"dx":0.0017,"nx":28,"ny":28,"refTime":"2024-03-16T21:00:00:Z","depth":"0","parameterNumber":2,"parameterNumberName":"U-component_of_CURRENTS"},"data":[0,0,0,0,0,0,0,0,0,0,0,0,0,0,0,0,0,0,0,0,0,0,0,0,0,0,0,0,0,0,0,0,0,0,0,0,0,0,0,0,0,0,0,0,0,0,0,0,0,0,0,0,0,0,0,0,0,0,-0.2115,-0.2115,0,-0.2125,-0.2124,-0.2124,-0.2082,-0.2082,-0.2081,-0.208,-0.2038,-0.2038,-0.2037,0,0,0,0,0,0,0,0,0,0,0,0,0,-0.2059,-0.206,-0.2114,-0.2115,-0.2115,-0.2125,-0.2124,-0.2124,-0.2083,-0.2082,-0.208,-0.2079,-0.2038,-0.2038,-0.2037,0,0,0,0,0,0,0,0,0,0,0,0,0,-0.2074,-0.206,-0.2114,-0.2098,-0.2097,-0.2125,-0.2124,-0.2124,-0.2083,-0.2082,-0.208,-0.2079,-0.2038,-0.2038,-0.2037,-0.2062,0,0,-0.2036,-0.2036,0,0,0,0,0,0,0,0,-0.2073,-0.2076,-0.21,-0.21,-0.2099,-0.2104,-0.209,-0.2102,-0.2083,-0.2085,-0.208,-0.2078,-0.2059,-0.2056,-0.2057,-0.206,-0.2058,-0.2036,-0.2036,-0.2036,-0.2035,0,0,0,0,0,0,0,-0.2072,-0.2075,-0.2115,-0.2101,-0.21,-0.2091,-0.2091,-0.2092,-0.2075,-0.2084,-0.2082,-0.209,-0.2057,-0.2057,-0.2056,-0.2057,-0.2036,-0.2036,-0.2035,-0.2035,-0.209,-0.2091,0,0,0,0,0,0,-0.208,-0.2074,-0.2115,-0.2115,-0.2086,-0.2093,-0.2093,-0.2101,-0.2076,-0.2073,-0.2091,-0.2088,-0.2059,-0.2056,-0.2054,-0.2092,-0.2036,-0.2035,-0.2035,-0.2088,-0.209,-0.2092,0,0,0,0,0,0,-0.2079,-0.2084,-0.2114,-0.2098,-0.2101,-0.2096,-0.2104,-0.2102,-0.2102,-0.2082,-0.2077,-0.2094,-0.2058,-0.2054,-0.2065,-0.2089,-0.2035,-0.2035,-0.2086,-0.2089,-0.2091,-0.2161,0,0,0,0,0,0,-0.2077,-0.2083,-0.2091,-0.2098,-0.2103,-0.2142,-0.2106,-0.2103,-0.2111,-0.2106,-0.2084,-0.2078,-0.2056,-0.2066,-0.2065,-0.2088,-0.2034,-0.2084,-0.2087,-0.209,-0.2157,-0.2166,-0.2173,0,0,0,0,0,-0.2075,-0.2096,-0.2092,-0.2097,-0.2114,-0.2144,-0.2146,-0.2134,-0.2112,-0.2126,-0.2109,-0.2079,-0.2085,-0.2068,-0.2065,-0.2089,-0.2082,-0.2086,-0.209,-0.2153,-0.2164,-0.2173,0,0,0,0,0,0,-0.208,-0.2094,-0.2089,-0.2114,-0.2133,-0.2138,-0.215,-0.2142,-0.2141,-0.213,-0.2102,-0.2097,-0.2119,-0.2099,-0.208,-0.2116,-0.2079,-0.2083,-0.2128,-0.2138,-0.2146,-0.2168,-0.2034,0,0,0,0,0,-0.2087,-0.2101,-0.2118,-0.2139,-0.2149,-0.215,-0.2159,-0.2155,-0.2156,-0.2153,-0.2141,-0.213,-0.2136,-0.2131,-0.2134,-0.2151,-0.216,-0.2166,-0.2174,-0.2181,-0.22,-0.2228,-0.2241,-0.2104,-0.2104,-0.2104,0,0,-0.2094,-0.2105,-0.2112,-0.2141,-0.2148,-0.2179,-0.2151,-0.2173,-0.2195,-0.215,-0.2172,-0.2164,-0.215,-0.2173,-0.218,-0.2155,-0.2231,-0.2186,-0.2192,-0.2207,-0.2233,-0.2246,-0.2258,-0.2107,-0.2107,-0.2106,0,0,-0.2123,-0.2128,-0.215,-0.217,-0.2194,-0.2201,-0.2212,-0.2226,-0.2227,-0.2251,-0.2229,-0.2245,-0.2238,-0.2245,-0.2244,-0.2304,-0.2281,-0.2293,-0.2344,-0.2371,-0.2382,-0.2392,-0.2444,-0.2458,-0.2287,-0.2288,-0.2288,0,-0.2132,-0.2161,-0.2164,-0.2196,-0.2216,-0.2215,-0.2251,-0.2264,-0.228,-0.2291,-0.2266,-0.2296,-0.228,-0.2323,-0.2337,-0.2325,-0.2337,-0.2302,-0.2382,-0.2392,-0.2401,-0.2451,-0.2466,-0.2291,-0.2291,-0.2291,-0.229,0,-0.2177,-0.2204,-0.2222,-0.2258,-0.2283,-0.2314,-0.2337,-0.2358,-0.2355,-0.2365,-0.2407,-0.2401,-0.2415,-0.2414,-0.2388,-0.2448,-0.2437,-0.2395,-0.2355,-0.2419,-0.2468,-0.2482,-0.2297,-0.2296,-0.2294,-0.2293,0,0,-0.2195,-0.2242,-0.225,-0.2272,-0.2316,-0.2341,-0.2388,-0.2431,-0.2459,-0.2478,-0.2522,-0.254,-0.2532,-0.2533,-0.2514,-0.2535,-0.2611,-0.2488,-0.2487,-0.2539,-0.2688,-0.2691,-0.2706,-0.2568,-0.2571,-0.2572,-0.2705,0,-0.2231,-0.2289,-0.2308,-0.2369,-0.2401,-0.2421,-0.2465,-0.2501,-0.2521,-0.2565,-0.2581,-0.261,-0.2578,-0.258,-0.2605,-0.2596,-0.2646,-0.258,-0.262,-0.2622,-0.2615,-0.2722,-0.2499,-0.2598,-0.2718,-0.2721,-0.2722,0,-0.2276,-0.2305,-0.2363,-0.2417,-0.2434,-0.2469,-0.253,-0.2568,-0.2628,-0.2643,-0.2685,-0.269,-0.2739,-0.2692,-0.2754,-0.2704,-0.2718,-0.272,-0.2723,-0.2712,-0.2651,-0.2549,-0.2618,-0.2467,-0.2743,-0.2742,-0.274,0,-0.2285,-0.2349,-0.2389,-0.2409,-0.2471,-0.2497,-0.2528,-0.2587,-0.2623,-0.269,-0.2721,-0.2777,-0.2801,-0.2826,-0.2841,-0.2787,-0.2918,-0.2836,-0.2878,-0.2879,-0.2693,-0.2674,-0.2617,-0.2921,-0.292,-0.292,-0.2919,0,-0.2322,-0.2358,-0.2391,-0.2415,-0.2461,-0.2501,-0.2556,-0.2595,-0.2662,-0.2721,-0.2753,-0.2816,-0.2829,-0.2898,-0.2898,-0.2954,-0.2971,-0.2932,-0.2924,-0.2715,-0.2697,-0.2558,-0.2567,-0.2925,-0.2924,-0.2923,-0.2922,0,-0.2339,-0.2362,-0.2406,-0.2454,-0.2467,-0.2496,-0.2556,-0.26,-0.2658,-0.274,-0.2763,-0.2853,-0.2937,-0.299,-0.3049,-0.3029,-0.3004,-0.3102,-0.2881,-0.2845,-0.2698,-0.2722,-0.2817,-0.2751,-0.3143,-0.3144,-0.3145,0,-0.2357,-0.2378,-0.2415,-0.2429,-0.2448,-0.2489,-0.2523,-0.2587,-0.2637,-0.2767,-0.2813,-0.2929,-0.3014,-0.3131,-0.3101,-0.3149,-0.3083,-0.299,-0.2851,-0.2705,-0.2724,-0.275,-0.2688,-0.2637,-0.2634,-0.2631,-0.2629,0,-0.2381,-0.2385,-0.2408,-0.2428,-0.2454,-0.2493,-0.2544,-0.2583,-0.2677,-0.2757,-0.2878,-0.2957,-0.3052,-0.3002,-0.3071,-0.304,-0.284,-0.2938,-0.2809,-0.2378,-0.2379,-0.2301,-0.2566,-0.2604,-0.2607,-0.2609,-0.261,-0.2611,-0.2383,-0.2392,-0.2405,-0.2424,-0.2453,-0.2489,-0.2496,-0.2578,-0.2658,-0.2761,-0.2881,-0.2939,-0.2866,-0.2903,-0.2862,-0.2565,-0.2753,-0.2418,-0.2482,-0.2539,-0.2409,-0.267,-0.2685,-0.2687,-0.269,-0.2692,-0.2694,0,-0.2386,-0.2388,-0.2402,-0.2415,-0.2429,-0.245,-0.2503,-0.2509,-0.2583,-0.2683,-0.2786,-0.2717,-0.2591,-0.2453,-0.2179,-0.2071,-0.1984,-0.202,-0.1904,-0.1878,-0.2069,-0.1966,-0.1795,-0.1795,-0.1795,-0.1795,-0.1795,-0.1796,-0.2383,-0.2386,-0.2385,-0.2382,-0.2385,-0.2364,-0.2371,-0.24,-0.2432,-0.2452,-0.2419,-0.2462,-0.2208,-0.209,-0.1736,-0.1638,-0.1566,-0.1603,-0.1707,-0.1685,-0.1721,-0.1756,-0.1649,-0.1416,-0.1416,-0.1321,-0.132,-0.1319]},{"header":{"parameterUnit":"m.s-1","parameterCategory":2,"la1":30.2991,"la2":30.254,"lo1":-89.0895,"lo2":-89.0444,"dy":0.0017,"dx":0.0017,"nx":28,"ny":28,"refTime":"2024-03-16T21:00:00:Z","depth":"0","parameterNumber":3,"parameterNumberName":"V-component_of_CURRENTS"},"data":[0,0,0,0,0,0,0,0,0,0,0,0,0,0,0,0,0,0,0,0,0,0,0,0,0,0,0,0,0,0,0,0,0,0,0,0,0,0,0,0,0,0,0,0,0,0,0,0,0,0,0,0,0,0,0,0,0,0,-0.1499,-0.1498,0,-0.1413,-0.1412,-0.1411,-0.1327,-0.1326,-0.1326,-0.1325,-0.1144,-0.114,-0.1136,0,0,0,0,0,0,0,0,0,0,0,0,0,-0.1514,-0.1514,-0.1499,-0.1498,-0.1497,-0.1413,-0.1412,-0.141,-0.1327,-0.1326,-0.1325,-0.1324,-0.1145,-0.114,-0.1136,0,0,0,0,0,0,0,0,0,0,0,0,0,-0.1473,-0.1514,-0.1499,-0.1448,-0.1442,-0.1413,-0.1412,-0.141,-0.1328,-0.1326,-0.1325,-0.1324,-0.1147,-0.1141,-0.1135,-0.1123,0,0,-0.1116,-0.1114,0,0,0,0,0,0,0,0,-0.1476,-0.1472,-0.1456,-0.1451,-0.1445,-0.1382,-0.1351,-0.131,-0.1328,-0.1369,-0.1325,-0.1323,-0.1217,-0.1205,-0.119,-0.1114,-0.1106,-0.1116,-0.1112,-0.111,-0.1108,0,0,0,0,0,0,0,-0.1479,-0.1475,-0.1462,-0.1455,-0.1449,-0.1402,-0.1396,-0.1342,-0.1297,-0.1365,-0.1359,-0.1354,-0.1213,-0.1196,-0.1185,-0.1104,-0.1116,-0.1111,-0.1107,-0.1105,-0.0994,-0.0995,0,0,0,0,0,0,-0.15,-0.1479,-0.1465,-0.146,-0.1461,-0.1404,-0.1396,-0.1401,-0.13,-0.1284,-0.1355,-0.1351,-0.1207,-0.1192,-0.1178,-0.1149,-0.111,-0.1104,-0.1101,-0.0993,-0.0994,-0.0995,0,0,0,0,0,0,-0.1501,-0.15,-0.1469,-0.1468,-0.1461,-0.1406,-0.1412,-0.14,-0.1381,-0.1294,-0.1276,-0.1347,-0.1205,-0.1186,-0.1137,-0.1141,-0.1101,-0.1096,-0.0993,-0.0994,-0.0995,-0.1095,0,0,0,0,0,0,-0.1502,-0.1501,-0.1511,-0.1471,-0.1462,-0.1459,-0.1413,-0.14,-0.1381,-0.1374,-0.1281,-0.1263,-0.1203,-0.1146,-0.1131,-0.1132,-0.1091,-0.0992,-0.0993,-0.0994,-0.1091,-0.1099,-0.1107,0,0,0,0,0,-0.1503,-0.1523,-0.1512,-0.151,-0.1478,-0.146,-0.1451,-0.1405,-0.1382,-0.1381,-0.132,-0.1266,-0.1143,-0.1142,-0.1124,-0.1123,-0.0991,-0.0993,-0.0994,-0.1087,-0.1098,-0.1107,0,0,0,0,0,0,-0.153,-0.1515,-0.1503,-0.1516,-0.1494,-0.1447,-0.1443,-0.1415,-0.1368,-0.1356,-0.1274,-0.1253,-0.1211,-0.1159,-0.116,-0.1097,-0.1058,-0.1056,-0.1136,-0.1145,-0.1152,-0.1166,-0.1086,0,0,0,0,0,-0.1545,-0.1558,-0.1531,-0.1542,-0.1536,-0.1493,-0.1479,-0.145,-0.1406,-0.1384,-0.1325,-0.126,-0.1205,-0.1169,-0.1115,-0.1081,-0.1031,-0.1069,-0.1077,-0.1084,-0.1083,-0.1023,-0.1026,-0.1,-0.1,-0.1,0,0,-0.1558,-0.1553,-0.1558,-0.1549,-0.1527,-0.1526,-0.1481,-0.1468,-0.1457,-0.1371,-0.1341,-0.1286,-0.1204,-0.1166,-0.1142,-0.112,-0.1068,-0.1086,-0.1093,-0.1087,-0.1025,-0.1027,-0.1029,-0.1001,-0.1001,-0.1001,0,0,-0.159,-0.1588,-0.1606,-0.1594,-0.1574,-0.1553,-0.1555,-0.1517,-0.149,-0.146,-0.1396,-0.1352,-0.1269,-0.1216,-0.1175,-0.1195,-0.1117,-0.1176,-0.1217,-0.116,-0.1162,-0.1162,-0.1117,-0.1113,-0.1175,-0.1175,-0.1175,0,-0.1603,-0.1621,-0.1607,-0.1615,-0.1608,-0.1572,-0.158,-0.1555,-0.1504,-0.1487,-0.1462,-0.1354,-0.1292,-0.1236,-0.1243,-0.1212,-0.1168,-0.1189,-0.1171,-0.117,-0.1169,-0.1123,-0.1117,-0.118,-0.1179,-0.1179,-0.1178,0,-0.164,-0.1651,-0.1661,-0.1664,-0.1659,-0.1659,-0.163,-0.1621,-0.1592,-0.1559,-0.1508,-0.143,-0.1361,-0.1341,-0.1294,-0.1257,-0.1226,-0.1193,-0.1149,-0.1178,-0.1127,-0.1119,-0.1187,-0.1185,-0.1184,-0.1183,0,0,-0.1673,-0.1684,-0.1686,-0.1691,-0.1681,-0.1679,-0.168,-0.1663,-0.1655,-0.1606,-0.1586,-0.1503,-0.146,-0.1412,-0.1348,-0.1302,-0.1267,-0.1251,-0.1245,-0.1211,-0.1145,-0.0995,-0.0972,-0.1228,-0.1226,-0.1226,-0.1118,0,-0.17,-0.173,-0.1727,-0.1748,-0.1758,-0.1734,-0.1736,-0.1716,-0.1687,-0.1663,-0.1588,-0.1536,-0.1484,-0.1446,-0.1397,-0.1292,-0.1248,-0.1299,-0.1117,-0.1112,-0.0979,-0.0958,-0.0836,-0.0717,-0.111,-0.1108,-0.1107,0,-0.1731,-0.1746,-0.1776,-0.1784,-0.1787,-0.1795,-0.1791,-0.1783,-0.1747,-0.1719,-0.1667,-0.1603,-0.1525,-0.1481,-0.1322,-0.1354,-0.1262,-0.1188,-0.1181,-0.0996,-0.0945,-0.0747,-0.0687,-0.048,-0.1094,-0.1095,-0.1096,0,-0.1755,-0.1777,-0.1803,-0.1804,-0.1813,-0.182,-0.1821,-0.1802,-0.1792,-0.1748,-0.1731,-0.1634,-0.1568,-0.145,-0.1289,-0.1301,-0.1117,-0.111,-0.0894,-0.0884,-0.0718,-0.0693,-0.0434,-0.1007,-0.1007,-0.1007,-0.1007,0,-0.1781,-0.1799,-0.1816,-0.1827,-0.1855,-0.1846,-0.1863,-0.185,-0.1829,-0.1826,-0.1751,-0.1719,-0.1555,-0.143,-0.1302,-0.1052,-0.1115,-0.0886,-0.0833,-0.075,-0.073,-0.0492,-0.0451,-0.1003,-0.1004,-0.1005,-0.1006,0,-0.1802,-0.1814,-0.1842,-0.186,-0.1868,-0.1884,-0.1895,-0.1906,-0.1873,-0.1866,-0.1849,-0.1759,-0.1589,-0.1409,-0.1203,-0.1035,-0.0685,-0.0744,-0.0657,-0.0593,-0.0175,-0.0147,0.0133,0.0255,-0.0479,-0.0474,-0.047,0,-0.1815,-0.1834,-0.1867,-0.1894,-0.1905,-0.1927,-0.195,-0.1931,-0.194,-0.1893,-0.1895,-0.1739,-0.165,-0.1271,-0.0928,-0.0625,-0.0521,-0.0316,-0.0302,-0.0104,-0.0036,-0.0037,0.0043,-0.0143,-0.0137,-0.0132,-0.0128,0,-0.1836,-0.185,-0.1872,-0.1933,-0.1967,-0.2001,-0.2025,-0.2037,-0.2018,-0.2015,-0.1986,-0.1913,-0.1503,-0.1098,-0.0633,-0.0429,-0.0121,-0.0198,-0.0009,0.0253,0.0284,0.0411,-0.0287,-0.0083,-0.0087,-0.0091,-0.0093,-0.0095,-0.1848,-0.1872,-0.1915,-0.1976,-0.2023,-0.2079,-0.2114,-0.2142,-0.2169,-0.2161,-0.2069,-0.1884,-0.1222,-0.0549,-0.0303,0.0382,0.0224,0.0552,0.0565,0.0542,0.0697,0.0108,0.0389,0.0388,0.0386,0.0385,0.0384,0,-0.1868,-0.1907,-0.1964,-0.204,-0.2114,-0.2122,-0.2177,-0.222,-0.2283,-0.2174,-0.2138,-0.1378,-0.0741,-0.0081,0.0827,0.112,0.1151,0.1246,0.1261,0.1302,0.0793,0.085,0.1267,0.1267,0.1267,0.1267,0.1266,0.1266,-0.1882,-0.1943,-0.1984,-0.2114,-0.2173,-0.2271,-0.2309,-0.2369,-0.2303,-0.2052,-0.1632,-0.1278,-0.0274,0.092,0.1682,0.1751,0.1905,0.1895,0.1941,0.1584,0.1519,0.1457,0.1527,0.2078,0.2079,0.2474,0.2478,0.2481]}],[{"header":{"parameterUnit":"m.s-1","parameterCategory":2,"la1":30.2991,"la2":30.254,"lo1":-89.0895,"lo2":-89.0444,"dy":0.0017,"dx":0.0017,"nx":28,"ny":28,"refTime":"2024-03-16T21:00:00:Z","depth":"2","parameterNumber":2,"parameterNumberName":"U-component_of_CURRENTS"},"data":[0,0,0,0,0,0,0,0,0,0,0,0,0,0,0,0,0,0,0,0,0,0,0,0,0,0,0,0,0,0,0,0,0,0,0,0,0,0,0,0,0,0,0,0,0,0,0,0,0,0,0,0,0,0,0,0,0,0,-0.1775,-0.1775,0,-0.1801,-0.1802,-0.1802,-0.1825,-0.1825,-0.1825,-0.1825,-0.1883,-0.1885,-0.1886,0,0,0,0,0,0,0,0,0,0,0,0,0,-0.1791,-0.179,-0.1775,-0.1775,-0.1775,-0.1801,-0.1802,-0.1802,-0.1825,-0.1825,-0.1825,-0.1826,-0.1883,-0.1884,-0.1886,0,0,0,0,0,0,0,0,0,0,0,0,0,-0.1797,-0.179,-0.1775,-0.179,-0.1791,-0.1801,-0.1802,-0.1802,-0.1825,-0.1825,-0.1825,-0.1826,-0.1882,-0.1884,-0.1886,-0.1892,0,0,-0.1892,-0.1893,0,0,0,0,0,0,0,0,-0.1797,-0.1797,-0.1787,-0.1789,-0.179,-0.181,-0.1829,-0.1834,-0.1825,-0.1812,-0.1825,-0.1826,-0.1861,-0.1865,-0.1869,-0.1895,-0.1897,-0.1893,-0.1894,-0.1895,-0.1895,0,0,0,0,0,0,0,-0.1796,-0.1796,-0.1786,-0.1787,-0.1789,-0.1811,-0.1812,-0.183,-0.1835,-0.1813,-0.1815,-0.1817,-0.1862,-0.1867,-0.1871,-0.1898,-0.1892,-0.1894,-0.1895,-0.1896,-0.2005,-0.2006,0,0,0,0,0,0,-0.1789,-0.1795,-0.1785,-0.1786,-0.1794,-0.181,-0.1811,-0.1804,-0.1835,-0.1839,-0.1817,-0.1818,-0.1864,-0.1868,-0.1873,-0.1955,-0.1895,-0.1896,-0.1898,-0.2003,-0.2005,-0.2007,0,0,0,0,0,0,-0.1789,-0.1788,-0.1784,-0.1792,-0.1793,-0.1809,-0.1801,-0.1804,-0.1838,-0.1837,-0.1842,-0.1851,-0.1864,-0.187,-0.1914,-0.1954,-0.1897,-0.1899,-0.2001,-0.2004,-0.2006,-0.2071,0,0,0,0,0,0,-0.1789,-0.1787,-0.1799,-0.1791,-0.1792,-0.1807,-0.18,-0.1804,-0.1837,-0.184,-0.1868,-0.1871,-0.1865,-0.1911,-0.1916,-0.1956,-0.1901,-0.1999,-0.2002,-0.2005,-0.2067,-0.2075,-0.2083,0,0,0,0,0,-0.179,-0.1797,-0.1799,-0.1799,-0.18,-0.1808,-0.1812,-0.1825,-0.1839,-0.1857,-0.1879,-0.1872,-0.1935,-0.1914,-0.1919,-0.1961,-0.1997,-0.2001,-0.2005,-0.2063,-0.2074,-0.2083,0,0,0,0,0,0,-0.18,-0.1799,-0.1802,-0.1806,-0.1816,-0.1812,-0.1837,-0.1845,-0.1877,-0.1896,-0.1892,-0.1898,-0.1948,-0.1948,-0.1925,-0.2001,-0.1966,-0.1971,-0.2008,-0.2018,-0.2026,-0.2017,-0.1902,0,0,0,0,0,-0.1809,-0.1821,-0.1817,-0.1825,-0.1835,-0.1845,-0.1858,-0.187,-0.1886,-0.1902,-0.1916,-0.1941,-0.1963,-0.1986,-0.2,-0.2046,-0.2039,-0.2077,-0.2085,-0.2092,-0.2089,-0.2097,-0.2105,-0.2019,-0.2019,-0.2019,0,0,-0.1819,-0.1817,-0.1827,-0.1831,-0.1844,-0.1874,-0.1855,-0.1888,-0.192,-0.1904,-0.1963,-0.1969,-0.198,-0.2026,-0.205,-0.2036,-0.2121,-0.2097,-0.2103,-0.2095,-0.2102,-0.211,-0.2117,-0.2022,-0.2021,-0.2021,0,0,-0.1839,-0.1843,-0.1865,-0.1884,-0.191,-0.1916,-0.1934,-0.1951,-0.1971,-0.2018,-0.2015,-0.2038,-0.2085,-0.2087,-0.2097,-0.216,-0.2157,-0.2183,-0.2226,-0.2235,-0.2242,-0.2247,-0.2279,-0.2287,-0.2194,-0.2195,-0.2195,0,-0.1859,-0.1864,-0.1875,-0.1906,-0.1927,-0.1942,-0.1977,-0.2003,-0.2033,-0.2051,-0.2051,-0.2105,-0.2107,-0.2152,-0.2172,-0.2177,-0.2194,-0.2187,-0.2244,-0.2249,-0.2254,-0.2284,-0.2292,-0.2198,-0.2198,-0.2197,-0.2197,0,-0.1892,-0.1911,-0.1928,-0.1971,-0.2005,-0.2032,-0.2067,-0.2106,-0.2132,-0.2145,-0.2195,-0.2191,-0.2214,-0.223,-0.2222,-0.2267,-0.2275,-0.2247,-0.2216,-0.2266,-0.2296,-0.2303,-0.2203,-0.2202,-0.2201,-0.22,0,0,-0.1873,-0.1939,-0.1941,-0.197,-0.2038,-0.2057,-0.2135,-0.2176,-0.222,-0.2252,-0.2296,-0.2318,-0.2306,-0.2315,-0.2308,-0.2322,-0.2371,-0.231,-0.2309,-0.2336,-0.2424,-0.2264,-0.2256,-0.2362,-0.2363,-0.2364,-0.2443,0,-0.1886,-0.1932,-0.1977,-0.2039,-0.2063,-0.2126,-0.2188,-0.2246,-0.2287,-0.2337,-0.2344,-0.237,-0.2344,-0.2351,-0.2367,-0.2363,-0.2388,-0.2354,-0.2375,-0.2376,-0.2222,-0.2257,-0.2079,-0.2118,-0.2449,-0.245,-0.2451,0,-0.1879,-0.1908,-0.1955,-0.2048,-0.207,-0.2118,-0.2209,-0.2272,-0.2357,-0.2387,-0.2425,-0.2437,-0.2461,-0.2423,-0.2453,-0.2441,-0.2439,-0.2437,-0.2439,-0.2263,-0.2226,-0.2116,-0.2117,-0.2462,-0.2461,-0.246,-0.2459,0,-0.1801,-0.1889,-0.1914,-0.1945,-0.2057,-0.2097,-0.2163,-0.2265,-0.2323,-0.2398,-0.2441,-0.2484,-0.2493,-0.2504,-0.2507,-0.2485,-0.2551,-0.2509,-0.2374,-0.2366,-0.2198,-0.217,-0.253,-0.253,-0.253,-0.253,-0.253,0,-0.176,-0.1784,-0.187,-0.1879,-0.1936,-0.204,-0.2112,-0.219,-0.2302,-0.2375,-0.2435,-0.2487,-0.2512,-0.256,-0.2552,-0.2487,-0.2582,-0.2381,-0.2363,-0.2218,-0.2192,-0.2466,-0.2457,-0.2533,-0.2532,-0.2532,-0.2531,0,-0.1661,-0.1715,-0.1752,-0.1854,-0.1889,-0.1924,-0.2072,-0.2135,-0.2238,-0.2337,-0.2359,-0.2489,-0.2535,-0.2578,-0.2608,-0.2509,-0.2484,-0.2446,-0.2282,-0.2239,-0.2288,-0.2282,-0.2273,-0.2268,-0.2264,-0.226,-0.2257,0,-0.1614,-0.1609,-0.1702,-0.1724,-0.1763,-0.1837,-0.1905,-0.2061,-0.2142,-0.2332,-0.2378,-0.2474,-0.2514,-0.251,-0.2397,-0.2341,-0.2446,-0.2096,-0.1969,-0.2271,-0.2257,-0.2258,-0.2259,-0.1816,-0.181,-0.1805,-0.18,0,-0.1518,-0.1542,-0.157,-0.1611,-0.1667,-0.1762,-0.187,-0.1936,-0.2133,-0.2216,-0.2357,-0.2403,-0.2392,-0.2227,-0.2118,-0.2053,-0.2074,-0.1975,-0.2363,-0.1872,-0.1835,-0.1823,-0.184,-0.1753,-0.1758,-0.1761,-0.1764,-0.1766,-0.1434,-0.1435,-0.1464,-0.1504,-0.1574,-0.1676,-0.1728,-0.1849,-0.1967,-0.207,-0.221,-0.2168,-0.209,-0.1794,-0.1725,-0.1644,-0.1754,-0.1626,-0.1646,-0.1671,-0.1566,-0.1518,-0.1362,-0.1364,-0.1366,-0.1368,-0.137,0,-0.1333,-0.1351,-0.1369,-0.1434,-0.1481,-0.155,-0.17,-0.1705,-0.1782,-0.1855,-0.19,-0.1626,-0.1488,-0.1479,-0.1257,-0.1151,-0.1182,-0.1112,-0.1168,-0.1212,-0.1253,-0.1131,-0.081,-0.0809,-0.0808,-0.0806,0,0,-0.1279,-0.1263,-0.1282,-0.1319,-0.1362,-0.1425,-0.1487,-0.1472,-0.1491,-0.1416,-0.1364,-0.1385,-0.1382,-0.1068,-0.0994,-0.0897,-0.1061,-0.0849,-0.1293,-0.1405,-0.1445,-0.1531,-0.1389,0,0,0,0,0]},{"header":{"parameterUnit":"m.s-1","parameterCategory":2,"la1":30.2991,"la2":30.254,"lo1":-89.0895,"lo2":-89.0444,"dy":0.0017,"dx":0.0017,"nx":28,"ny":28,"refTime":"2024-03-16T21:00:00:Z","depth":"2","parameterNumber":3,"parameterNumberName":"V-component_of_CURRENTS"},"data":[0,0,0,0,0,0,0,0,0,0,0,0,0,0,0,0,0,0,0,0,0,0,0,0,0,0,0,0,0,0,0,0,0,0,0,0,0,0,0,0,0,0,0,0,0,0,0,0,0,0,0,0,0,0,0,0,0,0,0.0369,0.0369,0,0.0413,0.0414,0.0415,0.046,0.0461,0.0461,0.0462,0.0582,0.0585,0.0588,0,0,0,0,0,0,0,0,0,0,0,0,0,0.0356,0.0356,0.0369,0.0369,0.037,0.0413,0.0414,0.0415,0.046,0.0461,0.0462,0.0462,0.0581,0.0585,0.0588,0,0,0,0,0,0,0,0,0,0,0,0,0,0.0378,0.0356,0.0369,0.0397,0.04,0.0413,0.0414,0.0415,0.046,0.0461,0.0462,0.0462,0.058,0.0584,0.0588,0.0598,0,0,0.0601,0.0603,0,0,0,0,0,0,0,0,0.0377,0.0379,0.0392,0.0395,0.0398,0.0431,0.0454,0.048,0.046,0.0439,0.0462,0.0463,0.0537,0.0545,0.0552,0.0604,0.0609,0.0601,0.0604,0.0606,0.0607,0,0,0,0,0,0,0,0.0375,0.0377,0.0388,0.0393,0.0396,0.0418,0.0422,0.0459,0.0486,0.0441,0.0444,0.0446,0.054,0.0548,0.0556,0.0611,0.0601,0.0605,0.0607,0.0609,0.0748,0.0749,0,0,0,0,0,0,0.0365,0.0376,0.0387,0.0389,0.0388,0.0418,0.0422,0.0421,0.0484,0.0493,0.0446,0.0448,0.0541,0.0551,0.056,0.0626,0.0605,0.0609,0.0612,0.0747,0.0748,0.075,0,0,0,0,0,0,0.0364,0.0365,0.0385,0.0383,0.0387,0.0417,0.0415,0.0421,0.0443,0.0486,0.0498,0.0463,0.0542,0.0555,0.0603,0.063,0.0611,0.0615,0.0745,0.0747,0.0749,0.0726,0,0,0,0,0,0,0.0364,0.0364,0.0364,0.0382,0.0386,0.0392,0.0415,0.0422,0.0442,0.0446,0.0504,0.0515,0.0543,0.0596,0.0607,0.0635,0.0618,0.0744,0.0746,0.0749,0.0726,0.0727,0.0729,0,0,0,0,0,0.0363,0.0355,0.0364,0.0366,0.0383,0.0391,0.0396,0.0421,0.0442,0.0445,0.0491,0.0514,0.0619,0.06,0.0612,0.0642,0.0743,0.0746,0.0748,0.0725,0.0727,0.0729,0,0,0,0,0,0,0.0346,0.0359,0.037,0.0366,0.0378,0.0398,0.0403,0.0425,0.0462,0.0475,0.0521,0.0535,0.0591,0.0619,0.0596,0.0691,0.0689,0.0694,0.0667,0.0669,0.0671,0.0639,0.0621,0,0,0,0,0,0.0342,0.0342,0.0357,0.0353,0.0358,0.0384,0.0394,0.0412,0.0443,0.0461,0.0502,0.0556,0.061,0.0639,0.0682,0.0727,0.0745,0.0759,0.076,0.0761,0.0745,0.0806,0.0811,0.0759,0.0759,0.0759,0,0,0.0333,0.0341,0.0341,0.035,0.0362,0.0371,0.0392,0.0405,0.0423,0.0469,0.0511,0.056,0.0622,0.0675,0.0704,0.0702,0.0785,0.0765,0.0765,0.0748,0.0809,0.0814,0.0819,0.0761,0.0761,0.076,0,0,0.0314,0.0323,0.0318,0.0327,0.0344,0.0363,0.0368,0.0396,0.042,0.0461,0.0509,0.0565,0.0639,0.0685,0.0722,0.0758,0.079,0.0788,0.0772,0.0832,0.0836,0.084,0.0859,0.0865,0.0791,0.079,0.079,0,0.0305,0.0293,0.0317,0.0316,0.0317,0.036,0.0354,0.0389,0.0433,0.0454,0.0473,0.0592,0.0643,0.0715,0.073,0.076,0.0787,0.0757,0.0831,0.0836,0.084,0.0859,0.0866,0.079,0.079,0.079,0.079,0,0.0286,0.0274,0.0269,0.0284,0.0297,0.0292,0.0338,0.0367,0.0408,0.0445,0.0516,0.0584,0.0647,0.0691,0.0723,0.0789,0.0794,0.0823,0.0819,0.0843,0.0862,0.087,0.0789,0.0789,0.0789,0.0789,0,0,0.0254,0.0253,0.0247,0.023,0.0271,0.0267,0.0316,0.0351,0.0373,0.0447,0.048,0.0585,0.0619,0.0661,0.0718,0.0777,0.0832,0.081,0.0813,0.0813,0.0941,0.088,0.0882,0.0882,0.0883,0.0885,0.0937,0,0.0221,0.0186,0.021,0.0181,0.0162,0.0217,0.0244,0.0297,0.0357,0.0406,0.0503,0.0547,0.0612,0.063,0.071,0.08,0.0852,0.0813,0.0929,0.0932,0.0863,0.0889,0.0816,0.0851,0.0944,0.0945,0.0946,0,0.0189,0.016,0.0117,0.0098,0.0096,0.0094,0.013,0.0162,0.0266,0.031,0.0398,0.0473,0.0567,0.0613,0.0777,0.0752,0.0836,0.0909,0.0913,0.0865,0.0885,0.0847,0.0861,0.0958,0.0957,0.0956,0.0955,0,0.0128,0.0092,0.0041,0.0036,0.004,0.0028,0.0037,0.0121,0.0135,0.0231,0.0248,0.04,0.043,0.0593,0.0743,0.0764,0.0915,0.0964,0.0987,0.0982,0.0943,0.0932,0.1072,0.1071,0.1071,0.1071,0.1071,0,0.008,0.0031,-0.001,-0.004,-0.0106,-0.0067,-0.0101,-0.0052,0.0008,0.0011,0.0165,0.0194,0.0426,0.055,0.072,0.0857,0.0896,0.0973,0.0996,0.0932,0.092,0.1034,0.1028,0.1073,0.1073,0.1072,0.1072,0,0.0029,0.0005,-0.0072,-0.0116,-0.014,-0.0191,-0.0222,-0.0236,-0.0174,-0.0163,-0.015,0.0023,0.0183,0.0414,0.0652,0.077,0.0943,0.0979,0.0862,0.087,0.0977,0.0971,0.1019,0.1018,0.1016,0.1015,0.1014,0,0.0005,-0.0042,-0.0144,-0.0213,-0.025,-0.0324,-0.0369,-0.0335,-0.0349,-0.0272,-0.0278,-0.0129,0.0001,0.0317,0.0557,0.0818,0.0894,0.0865,0.0896,0.0956,0.0975,0.097,0.0966,0.084,0.0837,0.0836,0.0834,0,-0.0049,-0.0096,-0.016,-0.0307,-0.04,-0.0493,-0.0559,-0.0593,-0.0551,-0.053,-0.0476,-0.0365,-0.0072,0.0192,0.0503,0.0657,0.0827,0.0831,0.0948,0.0849,0.0788,0.0805,0.0807,0.0817,0.0819,0.082,0.0821,0.0822,-0.0095,-0.0163,-0.0266,-0.0402,-0.053,-0.066,-0.0739,-0.0761,-0.0789,-0.075,-0.0641,-0.0469,-0.0166,0.026,0.0486,0.0681,0.0717,0.0786,0.0793,0.0801,0.0756,0.0694,0.0696,0.0697,0.0698,0.0698,0.0699,0,-0.0149,-0.0235,-0.0358,-0.054,-0.0711,-0.075,-0.0867,-0.0903,-0.0941,-0.085,-0.0776,-0.046,-0.0155,0.0179,0.0449,0.0627,0.0655,0.0668,0.0683,0.0696,0.0709,0.0661,0.0575,0.0576,0.0577,0.0577,0,0,-0.0184,-0.0305,-0.0367,-0.0659,-0.0813,-0.1033,-0.1111,-0.11,-0.1045,-0.0925,-0.0789,-0.0579,-0.0161,0.0029,0.0275,0.0418,0.0502,0.0424,0.0494,0.0489,0.05,0.0738,0.0673,0,0,0,0,0]}],[{"header":{"parameterUnit":"m.s-1","parameterCategory":2,"la1":30.2991,"la2":30.254,"lo1":-89.0895,"lo2":-89.0444,"dy":0.0017,"dx":0.0017,"nx":28,"ny":28,"refTime":"2024-03-16T21:00:00:Z","depth":"4","parameterNumber":2,"parameterNumberName":"U-component_of_CURRENTS"},"data":[0,0,0,0,0,0,0,0,0,0,0,0,0,0,0,0,0,0,0,0,0,0,0,0,0,0,0,0,0,0,0,0,0,0,0,0,0,0,0,0,0,0,0,0,0,0,0,0,0,0,0,0,0,0,0,0,0,0,-0.1065,-0.1066,0,-0.1121,-0.1121,-0.1122,-0.1157,-0.1158,-0.1158,-0.1158,-0.1216,-0.1217,-0.1218,0,0,0,0,0,0,0,0,0,0,0,0,0,-0.0988,-0.0989,-0.1065,-0.1066,-0.1066,-0.1121,-0.1121,-0.1122,-0.1157,-0.1158,-0.1158,-0.1158,-0.1216,-0.1217,-0.1218,0,0,0,0,0,0,0,0,0,0,0,0,0,-0.1029,-0.099,-0.1065,-0.1092,-0.1095,-0.1121,-0.1121,-0.1122,-0.1157,-0.1158,-0.1158,-0.1159,-0.1215,-0.1217,-0.1219,-0.122,0,0,-0.1224,-0.1225,0,0,0,0,0,0,0,0,-0.1027,-0.1032,-0.1087,-0.109,-0.1093,-0.1134,-0.1116,-0.1155,-0.1157,-0.1132,-0.1158,-0.1159,-0.1189,-0.1193,-0.12,-0.1222,-0.1225,-0.1224,-0.1226,-0.1226,-0.1227,0,0,0,0,0,0,0,-0.1024,-0.103,-0.1085,-0.1088,-0.1092,-0.1101,-0.1107,-0.1123,-0.1156,-0.1134,-0.1137,-0.1146,-0.1191,-0.1199,-0.1202,-0.1226,-0.1224,-0.1226,-0.1227,-0.1228,-0.1318,-0.1319,0,0,0,0,0,0,-0.102,-0.1027,-0.1084,-0.1087,-0.1062,-0.1102,-0.1109,-0.1119,-0.1156,-0.1162,-0.1145,-0.1147,-0.1195,-0.12,-0.1204,-0.1264,-0.1226,-0.1228,-0.1229,-0.1317,-0.1318,-0.132,0,0,0,0,0,0,-0.1018,-0.1024,-0.1081,-0.1059,-0.1068,-0.1103,-0.1114,-0.112,-0.1147,-0.1164,-0.1171,-0.1168,-0.1196,-0.1202,-0.1241,-0.1264,-0.1229,-0.123,-0.1315,-0.1317,-0.1319,-0.1346,0,0,0,0,0,0,-0.1015,-0.1023,-0.1036,-0.1059,-0.1069,-0.1109,-0.1114,-0.1121,-0.1151,-0.1154,-0.1186,-0.1191,-0.1197,-0.1238,-0.1242,-0.1266,-0.1232,-0.1313,-0.1316,-0.1318,-0.1344,-0.1349,-0.1353,0,0,0,0,0,-0.1012,-0.1026,-0.1036,-0.1043,-0.1083,-0.111,-0.1116,-0.1141,-0.1152,-0.1167,-0.1193,-0.1191,-0.1257,-0.124,-0.1245,-0.127,-0.1312,-0.1315,-0.1318,-0.1341,-0.1348,-0.1353,0,0,0,0,0,0,-0.1001,-0.1032,-0.1043,-0.1066,-0.1092,-0.1117,-0.1134,-0.1151,-0.1183,-0.1189,-0.1206,-0.1213,-0.1253,-0.1261,-0.1242,-0.1304,-0.1285,-0.1289,-0.1301,-0.1307,-0.1312,-0.1307,-0.1233,0,0,0,0,0,-0.1003,-0.1022,-0.1051,-0.1071,-0.1084,-0.1112,-0.1129,-0.1146,-0.1174,-0.1189,-0.1215,-0.1241,-0.1266,-0.1286,-0.1304,-0.134,-0.1334,-0.136,-0.1365,-0.1369,-0.1369,-0.1383,-0.1388,-0.1329,-0.1329,-0.1329,0,0,-0.1004,-0.1024,-0.1036,-0.107,-0.109,-0.1113,-0.1123,-0.1152,-0.118,-0.1189,-0.1239,-0.1257,-0.1278,-0.1317,-0.1336,-0.1329,-0.1383,-0.1372,-0.1375,-0.1374,-0.1386,-0.1392,-0.1397,-0.1331,-0.1331,-0.133,0,0,-0.1004,-0.1033,-0.1043,-0.1066,-0.11,-0.1123,-0.1136,-0.1173,-0.12,-0.1243,-0.1258,-0.1294,-0.1334,-0.1358,-0.1372,-0.1416,-0.1404,-0.1425,-0.1451,-0.1464,-0.1469,-0.1473,-0.147,-0.1474,-0.1433,-0.1433,-0.1433,0,-0.1004,-0.102,-0.1051,-0.1066,-0.1087,-0.113,-0.1147,-0.1183,-0.1232,-0.1259,-0.1263,-0.1335,-0.1353,-0.1402,-0.1419,-0.1426,-0.1425,-0.1425,-0.1469,-0.1473,-0.1476,-0.1473,-0.1476,-0.1434,-0.1434,-0.1434,-0.1434,0,-0.1004,-0.1025,-0.1034,-0.107,-0.11,-0.1123,-0.1173,-0.1217,-0.1256,-0.1289,-0.135,-0.1379,-0.1421,-0.1437,-0.1442,-0.1485,-0.1472,-0.1467,-0.145,-0.1484,-0.1478,-0.1481,-0.1437,-0.1436,-0.1436,-0.1435,0,0,-0.0979,-0.1024,-0.1028,-0.1043,-0.1103,-0.1125,-0.1187,-0.1247,-0.1292,-0.1345,-0.1396,-0.1446,-0.1465,-0.1483,-0.15,-0.1519,-0.1542,-0.1507,-0.1507,-0.1496,-0.156,-0.1463,-0.1457,-0.1544,-0.1544,-0.1545,-0.1544,0,-0.0968,-0.0982,-0.1021,-0.1055,-0.1066,-0.1136,-0.119,-0.1256,-0.1317,-0.1382,-0.1429,-0.1477,-0.1483,-0.1504,-0.1528,-0.1541,-0.1552,-0.1542,-0.1536,-0.1536,-0.1439,-0.1458,-0.1548,-0.1546,-0.1547,-0.1547,-0.1548,0,-0.0949,-0.0961,-0.0974,-0.1041,-0.1057,-0.1092,-0.1187,-0.1244,-0.1349,-0.1394,-0.1458,-0.1499,-0.1552,-0.1541,-0.158,-0.1573,-0.1567,-0.157,-0.157,-0.1471,-0.1445,-0.1507,-0.1553,-0.1552,-0.1552,-0.1552,-0.1551,0,-0.0888,-0.0936,-0.0943,-0.0961,-0.1039,-0.1074,-0.1134,-0.1239,-0.1291,-0.1399,-0.1436,-0.1516,-0.1545,-0.1567,-0.1583,-0.1583,-0.1607,-0.1606,-0.1513,-0.1506,-0.158,-0.1576,-0.1618,-0.1618,-0.1618,-0.1618,-0.1618,0,-0.085,-0.0864,-0.0913,-0.0912,-0.094,-0.1026,-0.1082,-0.1159,-0.1267,-0.1316,-0.1427,-0.1459,-0.1551,-0.1582,-0.159,-0.1555,-0.1611,-0.1513,-0.1499,-0.1592,-0.1589,-0.1582,-0.1577,-0.1618,-0.1618,-0.1618,-0.1618,0,-0.078,-0.0812,-0.0817,-0.088,-0.09,-0.0919,-0.1023,-0.1064,-0.1187,-0.1252,-0.1283,-0.1415,-0.1457,-0.1529,-0.1567,-0.1541,-0.1532,-0.1501,-0.1591,-0.1583,-0.1421,-0.1419,-0.14,-0.1396,-0.1393,-0.1391,-0.1389,0,-0.0746,-0.0732,-0.076,-0.075,-0.0773,-0.082,-0.0847,-0.0987,-0.1033,-0.12,-0.1207,-0.131,-0.138,-0.1367,-0.1446,-0.1465,-0.1451,-0.144,-0.1437,-0.141,-0.1399,-0.1401,-0.1403,-0.1384,-0.1384,-0.1383,-0.1382,0,-0.0671,-0.0675,-0.0674,-0.0642,-0.0647,-0.0671,-0.073,-0.0765,-0.0928,-0.1031,-0.1112,-0.118,-0.123,-0.1294,-0.1322,-0.1331,-0.1451,-0.141,-0.1416,-0.1413,-0.1392,-0.1384,-0.1389,-0.1372,-0.1373,-0.1374,-0.1375,0,-0.061,-0.0581,-0.0564,-0.0537,-0.0531,-0.0534,-0.0591,-0.0659,-0.0736,-0.0944,-0.0948,-0.1083,-0.1191,-0.122,-0.1237,-0.1254,-0.1245,-0.1218,-0.1234,-0.1246,-0.1202,-0.1153,-0.1043,0,0,0,0,0,-0.0546,-0.0505,-0.0466,-0.0423,-0.0412,-0.0417,-0.0514,-0.0591,-0.0745,-0.0763,-0.0874,-0.0923,-0.1009,-0.1074,-0.1063,-0.1165,-0.124,-0.1147,-0.1213,-0.1316,-0.1328,-0.1294,0,0,0,0,0,0,-0.0499,-0.0461,-0.0436,-0.0337,-0.0287,-0.0279,-0.0347,-0.0455,-0.0498,-0.0662,-0.0709,-0.0826,-0.0912,-0.0971,-0.1018,-0.104,-0.1061,-0.1226,-0.1224,-0.131,-0.132,-0.133,-0.1298,0,0,0,0,0]},{"header":{"parameterUnit":"m.s-1","parameterCategory":2,"la1":30.2991,"la2":30.254,"lo1":-89.0895,"lo2":-89.0444,"dy":0.0017,"dx":0.0017,"nx":28,"ny":28,"refTime":"2024-03-16T21:00:00:Z","depth":"4","parameterNumber":3,"parameterNumberName":"V-component_of_CURRENTS"},"data":[0,0,0,0,0,0,0,0,0,0,0,0,0,0,0,0,0,0,0,0,0,0,0,0,0,0,0,0,0,0,0,0,0,0,0,0,0,0,0,0,0,0,0,0,0,0,0,0,0,0,0,0,0,0,0,0,0,0,0.017,0.017,0,0.0189,0.0189,0.0189,0.0216,0.0217,0.0217,0.0218,0.0259,0.026,0.026,0,0,0,0,0,0,0,0,0,0,0,0,0,0.0161,0.0161,0.017,0.017,0.0171,0.0189,0.0189,0.0189,0.0216,0.0217,0.0217,0.0218,0.0259,0.026,0.026,0,0,0,0,0,0,0,0,0,0,0,0,0,0.0171,0.0161,0.017,0.0186,0.0188,0.0189,0.0189,0.0189,0.0216,0.0217,0.0218,0.0218,0.0259,0.026,0.0261,0.0254,0,0,0.0264,0.0264,0,0,0,0,0,0,0,0,0.0171,0.0172,0.0184,0.0185,0.0187,0.0201,0.0201,0.0212,0.0216,0.0206,0.0218,0.0219,0.0241,0.0243,0.0246,0.0255,0.0257,0.0264,0.0264,0.0265,0.0265,0,0,0,0,0,0,0,0.017,0.0171,0.0178,0.0184,0.0186,0.0193,0.0196,0.0203,0.022,0.0207,0.0209,0.021,0.0242,0.0244,0.0247,0.0258,0.0264,0.0265,0.0265,0.0266,0.0283,0.0283,0,0,0,0,0,0,0.0166,0.017,0.0177,0.0178,0.018,0.0193,0.0195,0.0196,0.022,0.0223,0.0209,0.0211,0.0242,0.0246,0.0248,0.0249,0.0265,0.0266,0.0266,0.0283,0.0283,0.0283,0,0,0,0,0,0,0.0166,0.0167,0.0177,0.0175,0.0177,0.0192,0.0193,0.0196,0.0203,0.0221,0.0226,0.0214,0.0243,0.0247,0.0256,0.025,0.0266,0.0267,0.0284,0.0283,0.0283,0.0245,0,0,0,0,0,0,0.0166,0.0166,0.0167,0.0174,0.0176,0.0173,0.0192,0.0196,0.0203,0.0205,0.0227,0.0231,0.0244,0.0254,0.0257,0.0252,0.0268,0.0284,0.0284,0.0283,0.0246,0.0243,0.0241,0,0,0,0,0,0.0165,0.016,0.0167,0.0168,0.0176,0.0172,0.0174,0.0188,0.0202,0.0199,0.0217,0.0231,0.0255,0.0255,0.0258,0.0253,0.0284,0.0284,0.0283,0.0248,0.0244,0.0241,0,0,0,0,0,0,0.0159,0.0163,0.017,0.0168,0.0168,0.0177,0.0176,0.0187,0.0198,0.0204,0.0226,0.023,0.0236,0.025,0.025,0.0259,0.0273,0.0273,0.0244,0.0241,0.0239,0.0237,0.0269,0,0,0,0,0,0.0157,0.0155,0.0158,0.0157,0.0156,0.0167,0.0169,0.0176,0.0186,0.0192,0.0207,0.0225,0.0236,0.0243,0.0253,0.0256,0.0287,0.0257,0.0254,0.0252,0.0253,0.0295,0.0297,0.0282,0.0282,0.0282,0,0,0.0155,0.0157,0.0157,0.0156,0.0159,0.0143,0.017,0.0168,0.0161,0.0194,0.0194,0.0214,0.0234,0.0237,0.0241,0.0249,0.0272,0.0251,0.0249,0.0252,0.0295,0.0297,0.0298,0.0282,0.0282,0.0282,0,0,0.014,0.015,0.0138,0.013,0.0129,0.0132,0.013,0.0136,0.0147,0.0146,0.0171,0.0193,0.0201,0.0221,0.0231,0.0221,0.0255,0.0221,0.0207,0.0247,0.0249,0.0251,0.0292,0.0297,0.0221,0.0221,0.0221,0,0.0139,0.0118,0.0134,0.0111,0.0097,0.0123,0.0095,0.0107,0.0118,0.0125,0.014,0.0174,0.0195,0.0209,0.0207,0.0215,0.0243,0.0216,0.0244,0.0246,0.0249,0.029,0.0297,0.0219,0.022,0.022,0.022,0,0.0106,0.0086,0.0076,0.0054,0.0044,0.0025,0.0034,0.004,0.0058,0.0074,0.0096,0.0134,0.0156,0.0168,0.0183,0.0209,0.0224,0.0234,0.0252,0.0248,0.0292,0.03,0.0217,0.0217,0.0218,0.0218,0,0,0.0108,0.0061,0.0056,0.0022,0.0007,-0.001,-0.0014,-0.0015,-0.0016,0.0021,0.0028,0.0069,0.0106,0.012,0.0154,0.0195,0.024,0.0219,0.0222,0.0258,0.0331,0.0291,0.0296,0.0254,0.0255,0.0256,0.0355,0,0.0073,0.0011,0.0001,-0.0063,-0.01,-0.009,-0.0105,-0.0096,-0.0069,-0.0051,0.0017,0.0035,0.0083,0.0096,0.0147,0.0216,0.0259,0.0213,0.0331,0.0334,0.0298,0.0303,0.0259,0.0361,0.0363,0.0364,0.0365,0,0.0043,-0.0002,-0.007,-0.014,-0.0155,-0.0183,-0.0202,-0.0207,-0.0162,-0.014,-0.0086,-0.0033,0.0041,0.0075,0.0211,0.0178,0.025,0.031,0.0315,0.0296,0.0308,0.0366,0.038,0.0379,0.0378,0.0377,0.0376,0,0.0028,-0.0054,-0.0113,-0.0138,-0.0201,-0.0226,-0.0248,-0.023,-0.0236,-0.0184,-0.0176,-0.0077,-0.0029,0.0082,0.0218,0.0213,0.0366,0.0374,0.0409,0.0408,0.0432,0.043,0.0463,0.0463,0.0463,0.0463,0.0462,0,-0.0007,-0.0057,-0.0131,-0.0165,-0.0243,-0.0266,-0.0316,-0.0311,-0.0301,-0.0302,-0.022,-0.0187,-0.0026,0.0083,0.0206,0.0335,0.0362,0.0409,0.0429,0.0414,0.0408,0.0438,0.0434,0.0466,0.0466,0.0465,0.0464,0,-0.0007,-0.0054,-0.0131,-0.0216,-0.0252,-0.0298,-0.0374,-0.0397,-0.0383,-0.0378,-0.0364,-0.0259,-0.0115,0.0045,0.0233,0.0304,0.0438,0.0475,0.0451,0.0468,0.0457,0.045,0.0519,0.0519,0.0518,0.0518,0.0517,0,-0.0015,-0.0053,-0.0161,-0.0214,-0.0258,-0.0338,-0.0391,-0.0425,-0.0442,-0.0413,-0.0404,-0.0285,-0.0194,0.0046,0.0209,0.0427,0.0448,0.0502,0.0477,0.045,0.0463,0.0457,0.045,0.0516,0.0516,0.0516,0.0516,0,-0.0028,-0.0055,-0.0115,-0.0219,-0.0297,-0.0393,-0.0464,-0.0493,-0.0509,-0.0504,-0.0431,-0.0313,-0.0161,0.0037,0.0198,0.0355,0.0458,0.0497,0.0499,0.0475,0.0448,0.0459,0.0454,0.0514,0.0514,0.0514,0.0515,0,-0.0024,-0.0063,-0.0131,-0.0222,-0.0319,-0.0411,-0.0466,-0.05,-0.0526,-0.0498,-0.0465,-0.0303,-0.0202,0.0001,0.016,0.0297,0.0324,0.0346,0.0356,0.036,0.0275,0.0214,0.0227,0,0,0,0,0,-0.0019,-0.0058,-0.0139,-0.0243,-0.033,-0.0384,-0.0494,-0.0536,-0.0562,-0.0518,-0.0497,-0.0351,-0.0137,-0.0035,0.0098,0.0148,0.0347,0.0303,0.0378,0.0504,0.0506,0.0428,0,0,0,0,0,0,-0.0022,-0.0078,-0.0124,-0.0227,-0.0287,-0.0393,-0.046,-0.0492,-0.0477,-0.0473,-0.035,-0.0315,-0.009,-0.0175,0.012,0.0157,0.0214,0.0407,0.0408,0.0502,0.0504,0.0506,0.0427,0,0,0,0,0]}]]